Location: Street
(51.1247°N, 2.7429°W)
Time: 07:57:56
(UTC+01:00)

UWE-3 - Pass Details

Date: 06 April 2023
Orbit: 576 x 669 km, 97.7° (Epoch: 02 June)

Event Time Altitude Azimuth Distance (km) Brightness Sun altitude
Rises 04:05:07 0° 15° (NNE) 2,964 ? -21.8°
Reaches altitude 10° 04:07:23 10° 19° (NNE) 2,035 ? -21.5°
Maximum altitude 04:11:48 65° 102° (ESE) 686 ? -21.0°
Enters shadow 04:13:22 37° 170° (S) 965 ? -20.8°
